SCP
0 0 0 0 0 0 0 0 0 0 0 0 0 0 0 0 0 0 0 0 0 0 0 0 0 0 0 0 0 0 0 0 0 0 0 0 0 0 0 0 0 0 0
0 0 0 0 0 0 0 0 0 0 0 0 0 0 0 0 0 0 0 0 0 0 0 0 0 0 0 0 0 0 0 0 0 0 0 0 0 0 0 0 0 0 0
0 0 0 0 0 0 0 0 0 0 0 0 0 0 0 0 0 0 0 0 0 0 0 0 0 0 0 0 0 0 0 0 0 0 0 0 0 0 0 0 0 0 0
0 0 0 0 0 0 0 0 0 0 0 0 0 0 0 0 0 0 0 0 0 0 0 0 0 0 0 0 0 0 0 0 0 0 0 0 0 0 0 0 0 0 0
0 0 0 0 0 0 0 0 0 0 0 0 0 0 0 0 0 0 0 0 0 0 0 0 0 0 0 0 0 0 0 0 0 0 0 0 0 0 0 0 0 0 0
0 0 0 0 0 0 0 0 0 0 0 0 0 0 0 0 0 0 0 0 0 0 0 0 0 0 0 0 0 0 0 0 0 0 0 0 0 0 0 0 0 0 0
0 0 0 0 0 0 0 0 0 0 0 0 0 0 0 0 0 0 0 0 0 0 0 0 0 0 0 0 0 0 0 0 0 0 0 0 0 0 0 0 0 0 0
0 0 0 0 0 0 0 0 0 0 0 0 0 0 0 0 0 0 0 0 0 0 0 0 0 0 0 0 0 0 0 0 0 0 0 0 0 0 0 0 0 0 0
0 0 0 0 0 0 0 0 0 0 0 0 0 0 0 0 0 0 0 0 0 0 0 0 0 0 0 0 0 0 0 0 0 0 0 0 0 0 0 0 0 0 0
0 0 0 0 0 0 0 0 0 0 0 0 0 0 0 0 0 0 0 0 0 0 0 0 0 0 0 0 0 0 0 0 0 0 0 0 0 0 0 0 0 0 0
0 0 0 0 0 0 0 0 0 0 0 0 0 0 0 0 0 0 0 0 0 0 0 0 0 0 0 0 0 0 0 0 0 0 0 0 0 0 0 0 0 0 0
0 0 0 0 0 0 0 0 0 0 0 0 0 0 0 0 0 0 0 0 0 0 0 0 0 0 0 0 0 0 0 0 0 0 0 0 0 0 0 0 0 0 1
0 0 0 0 0 0 0 0 0 0 0 0 0 0 0 0 0 0 0 0 0 0 0 0 0 0 0 0 0 0 0 0 0 0 0 0 0 0 0 0 0 0 1
0 0 0 0 0 0 0 0 0 0 0 0 0 0 0 0 0 0 0 0 0 0 0 0 0 0 0 0 0 0 0 0 0 0 0 0 0 0 0 0 0 0 0
0 0 0 0 0 0 0 0 0 0 0 0 0 0 0 0 0 0 0 0 0 0 0 0 0 0 0 0 0 0 0 0 0 0 0 0 0 0 0 0 0 0 1
0 0 0 0 0 0 0 0 0 0 0 0 0 0 0 0 0 0 0 0 0 0 0 0 0 0 0 0 0 0 0 0 0 0 0 0 0 0 0 0 0 1 1
0 0 0 0 0 0 0 0 0 0 0 0 0 0 0 0 0 0 0 0 0 0 0 0 0 0 0 0 0 0 0 0 0 0 0 0 0 0 0 0 0 1 1
0 0 0 0 0 0 0 0 0 0 0 0 0 0 0 0 0 0 0 0 0 0 0 0 0 0 0 0 0 0 0 0 0 0 0 0 0 0 0 0 0 0 0
0 0 0 0 0 0 0 0 0 0 0 0 0 0 0 0 0 0 0 0 0 0 0 0 0 0 0 0 0 0 0 0 0 0 0 0 0 0 0 0 0 0 0
0 0 0 0 0 0 0 0 0 0 0 0 0 0 0 0 0 0 0 0 0 0 0 0 0 0 0 0 0 0 0 0 0 0 0 0 0 0 0 0 0 0 0
0 0 0 0 0 0 0 0 0 0 0 0 0 0 0 0 0 0 0 0 0 0 0 0 0 0 0 0 0 0 0 0 0 0 0 0 0 0 0 0 0 0 0
0 0 0 0 0 0 0 0 0 0 0 0 0 0 0 0 0 0 0 0 0 0 0 0 0 0 0 0 0 0 0 0 0 0 0 0 0 0 0 0 0 0 0
0 0 0 0 0 0 0 0 0 0 0 0 0 0 0 0 0 0 0 0 0 0 0 0 0 0 0 0 0 0 0 0 0 0 0 0 0 0 0 0 0 0 0
0 0 0 0 0 0 0 0 0 0 0 0 0 0 0 0 0 0 0 0 0 0 0 0 0 0 0 0 0 0 0 0 0 0 0 0 0 0 0 0 0 0 0
0 0 0 0 0 0 0 0 0 0 0 0 0 0 0 0 0 0 0 0 0 0 0 0 0 0 0 0 0 0 0 0 0 0 0 0 0 0 0 0 0 0 0
0 0 0 0 0 0 0 0 0 0 0 0 0 0 0 0 0 0 0 0 0 0 0 0 0 0 0 0 0 0 0 0 0 0 0 0 0 0 0 0 0 0 0
Wind_Speed
5 4 3 3 3 3 3 3 3 4 4 3 3 3 3 3 2 2 1 3 6 9 9 9 9 9 9 8 8 8 8 8 7 7 7 7 7 7 8 8 8 9 9
5 5 4 4 3 3 3 3 4 4 3 3 3 2 2 2 2 2 1 1 4 7 10 10 10 10 10 9 9 8 8 7 7 6 6 6 5 5 5 5 6 6 7
6 6 5 5 4 4 4 3 3 3 3 2 2 2 2 2 2 2 1 1 2 4 8 11 11 11 11 10 10 9 9 8 8 7 6 6 5 4 4 3 3 4 4
7 6 6 6 5 5 4 4 4 3 3 3 2 1 1 1 2 2 2 2 2 2 5 10 12 13 13 12 12 11 11 10 9 8 8 7 6 5 4 3 1 1 2
8 7 6 6 6 5 5 5 3 3 4 3 3 2 1 2 2 3 4 4 4 3 3 6 9 11 14 15 14 14 13 12 12 11 10 9 8 7 5 4 3 2 1
10 9 6 7 7 6 6 6 5 3 3 3 2 2 2 3 3 4 5 4 4 5 5 5 4 6 13 17 17 16 16 15 14 13 12 11 10 9 8 6 5 4 3
12 11 8 8 8 8 9 9 5 5 3 3 2 2 3 4 5 6 6 5 7 7 6 6 5 4 5 16 19 19 18 18 17 16 15 14 13 11 10 9 8 7 6
11 10 11 9 9 8 9 9 7 5 4 6 5 3 3 4 8 10 7 8 9 6 8 8 7 7 5 4 10 20 21 20 19 18 17 16 15 14 13 11 10 9 8
11 11 12 10 10 10 10 12 12 11 8 8 6 6 5 8 4 3 8 9 9 8 9 8 10 9 8 7 6 16 21 21 21 20 19 19 17 16 15 13 12 11 10
10 11 11 12 11 10 11 11 13 10 8 8 7 7 5 2 3 4 3 6 8 11 12 10 11 10 10 8 10 16 19 21 22 21 21 20 19 18 17 15 14 13 11
8 10 10 10 11 10 11 10 11 12 10 10 8 6 7 5 3 4 7 4 4 9 11 10 9 9 11 11 10 15 22 23 22 21 21 21 20 19 18 17 15 14 13
5 8 8 9 10 9 10 11 11 13 12 11 10 7 6 6 8 9 12 8 7 6 7 8 10 11 11 11 14 20 24 26 26 24 23 22 21 20 19 18 17 15 14
5 7 8 9 8 9 9 9 10 12 13 12 12 11 10 10 5 5 8 7 6 4 4 6 10 10 11 10 12 21 24 27 28 27 25 23 23 22 20 19 18 16 14
6 6 7 8 8 8 8 8 9 10 10 13 14 13 10 10 8 8 6 5 7 6 7 9 6 10 11 11 16 23 17 28 29 29 27 25 24 23 21 20 18 16 15
4 6 6 7 8 8 9 9 9 10 10 12 12 13 12 10 9 9 8 8 8 11 11 8 8 9 10 9 17 14 14 23 28 29 28 27 25 23 22 20 19 17 16
5 5 6 7 8 8 8 9 10 9 11 11 9 12 13 10 9 8 9 9 10 11 14 5 8 7 9 10 16 14 14 22 26 28 28 26 25 24 22 20 19 17 15
5 6 6 7 8 8 8 9 11 10 11 11 10 12 13 11 10 9 9 9 10 11 17 12 5 6 9 10 10 11 10 12 12 25 27 26 25 23 22 20 18 16 15
5 6 6 6 7 8 8 10 11 11 12 13 12 11 12 9 12 10 9 10 10 11 12 16 6 5 9 9 9 10 9 10 10 19 25 26 24 23 21 19 18 15 13
5 5 5 6 7 8 8 9 11 11 11 11 10 11 11 9 11 9 10 10 9 9 11 12 10 4 4 4 6 6 7 7 8 13 20 22 22 21 20 18 17 14 12
6 6 5 6 7 7 8 8 9 10 10 10 9 9 9 9 10 9 9 10 9 9 9 10 9 4 3 3 5 7 7 8 7 7 12 13 16 19 18 17 15 12 11
6 6 6 6 6 6 6 7 8 9 9 9 8 8 8 9 10 9 7 7 7 8 8 8 8 5 5 5 6 6 7 5 5 5 6 6 6 6 8 12 12 11 12
6 6 6 7 7 6 9 11 9 8 8 8 8 7 7 7 9 11 13 12 11 9 9 8 8 8 8 7 5 6 5 5 4 5 6 6 5 6 5 5 10 13 13
7 7 7 6 7 9 12 11 10 8 8 7 7 6 5 5 6 6 9 11 11 13 14 10 10 9 6 6 7 8 7 6 4 5 6 5 5 6 5 7 14 14 13
6 7 7 7 7 8 11 11 9 7 6 6 6 6 6 5 4 5 5 6 6 6 8 7 7 4 3 5 7 7 6 5 4 4 5 4 4 4 3 4 10 12 11
7 6 6 6 7 8 9 10 8 4 4 5 4 4 4 4 6 7 6 5 5 4 6 5 3 2 4 7 8 5 6 5 3 2 2 3 3 2 1 1 3 7 7
7 7 6 5 5 6 9 9 7 3 3 3 2 2 3 4 5 6 3 3 4 3 2 1 1 1 3 5 9 6 6 5 3 2 3 3 3 3 1 0 1 1 1
Wind_Direction
162 157 152 147 141 133 135 134 132 130 125 120 120 130 135 136 139 134 154 162 167 171 170 167 164 160 156 153 150 147 142 137 132 128 122 116 109 102 94 86 79 72 65
168 167 167 168 166 158 152 151 152 148 145 142 144 148 154 155 164 167 191 220 197 193 193 188 184 181 176 174 172 169 166 161 158 153 146 138 130 119 107 95 83 72 62
176 175 177 183 181 161 150 142 140 136 147 157 168 172 172 187 196 206 218 245 251 229 214 205 201 198 195 192 192 190 188 185 182 180 176 170 163 153 140 120 97 76 60
182 180 187 194 177 165 165 165 162 163 178 183 187 200 211 226 231 239 245 245 246 254 243 223 215 213 210 208 207 206 204 202 201 200 200 197 193 189 183 172 150 89 44
191 191 197 193 175 176 180 180 178 175 185 191 188 196 230 244 248 255 250 247 246 243 244 242 231 224 221 219 217 216 215 213 212 212 213 214 214 211 211 213 219 236 300
197 199 202 192 181 182 187 190 184 178 177 170 174 219 248 250 251 246 245 245 246 244 240 240 239 236 230 226 225 224 222 220 219 219 221 223 225 225 225 228 235 244 261
199 203 204 196 190 196 200 195 178 178 179 145 138 254 268 242 241 240 234 236 239 237 238 236 231 229 236 232 231 229 229 226 223 222 224 227 229 231 233 237 241 250 261
203 204 206 203 199 202 200 192 180 179 181 177 177 173 260 276 241 232 223 229 235 232 235 234 229 226 226 229 235 233 234 233 229 225 225 228 231 233 236 240 244 249 258
207 206 208 207 203 203 206 202 196 190 199 200 197 182 192 235 247 249 230 230 230 228 233 230 231 229 224 223 231 236 235 237 236 233 229 228 230 233 236 240 245 250 257
213 211 210 210 209 208 211 206 204 204 198 203 210 228 230 200 206 274 254 237 233 234 233 230 229 228 225 225 225 229 233 235 237 238 236 233 232 233 236 240 244 249 255
218 218 216 215 216 215 216 209 205 208 210 211 202 202 220 229 224 245 269 257 243 239 236 231 229 227 225 225 226 228 230 233 234 236 237 237 236 237 238 240 244 248 254
224 225 223 225 224 221 219 215 211 212 215 219 217 204 193 200 209 219 246 250 245 238 228 226 227 229 226 225 227 228 230 232 233 234 234 235 236 238 239 242 244 248 253
226 227 224 229 230 228 223 217 216 217 217 218 222 222 221 225 210 211 239 257 258 246 229 229 228 227 227 225 227 228 231 233 233 233 233 233 234 236 238 241 244 248 253
227 226 225 232 235 233 229 223 224 224 220 222 226 227 229 229 221 216 218 235 265 260 231 233 227 223 225 221 226 226 228 230 233 234 233 232 232 233 235 238 241 245 250
240 232 230 234 237 235 233 230 236 232 225 225 228 228 231 233 227 225 220 217 240 270 268 214 217 222 220 218 225 222 222 229 230 233 233 232 231 231 233 235 237 241 247
248 242 239 239 241 240 237 237 244 241 237 234 228 229 231 232 231 226 224 224 226 246 271 236 214 210 207 217 223 220 222 226 230 231 231 231 231 230 231 233 235 240 246
252 245 242 241 242 245 242 243 246 244 245 245 236 233 235 229 231 230 227 228 229 232 258 268 216 201 201 214 218 216 216 218 223 228 230 230 229 228 229 230 233 237 244
265 254 249 246 246 246 244 244 250 247 247 249 245 241 241 233 233 233 231 232 233 230 245 266 258 205 210 211 211 211 212 214 216 224 226 228 228 227 227 228 231 235 242
289 276 260 254 253 250 248 247 252 254 252 252 250 246 245 236 239 236 234 238 238 237 238 254 263 218 207 196 202 209 208 210 212 220 225 227 227 226 225 227 229 230 238
303 295 279 267 263 259 254 253 253 257 258 257 253 249 246 239 243 241 242 243 244 246 243 249 257 232 195 178 189 203 211 207 208 204 216 219 223 224 223 225 225 227 235
310 302 296 288 278 268 261 255 255 257 260 262 258 253 250 248 248 247 248 252 249 254 253 251 252 234 205 188 203 197 207 195 198 189 195 200 203 205 208 220 222 225 236
316 313 305 297 292 282 278 268 260 258 256 258 262 259 255 253 256 259 260 259 256 257 259 254 253 244 230 210 193 186 181 172 193 182 183 192 185 197 195 197 218 228 235
318 313 306 301 295 293 294 286 272 263 260 258 257 259 257 250 251 256 265 269 267 264 262 262 261 253 231 197 184 186 187 183 180 159 168 185 185 202 194 208 220 228 234
313 308 305 300 297 298 301 295 286 268 263 262 256 252 255 261 252 258 262 266 268 271 273 265 257 251 212 184 186 183 175 148 97 142 161 176 172 189 181 194 222 228 227
310 305 301 302 299 302 309 304 298 278 271 271 265 258 257 263 271 273 268 270 280 285 296 288 269 214 181 173 162 146 148 148 141 156 159 153 145 137 131 177 228 223 216
303 305 304 304 301 300 308 308 302 277 277 280 279 274 269 272 281 284 266 264 278 291 314 334 351 119 143 161 164 159 159 161 141 160 167 149 137 134 153 124 106 102 187